Time,TemperatureF,DewpointF,PressureIn,WindDirection,WindDirectionDegrees,WindSpeedMPH,WindSpeedGustMPH,Humidity,HourlyPrecipIn,Conditions,Clouds,dailyrainin,SoftwareType,DateUTC
2013-04-06 00:09:00,47.8,40.3,29.85,SSW,195,0.0,2.9,75,0.00,,,0.00,meteobridge,2013-04-06 07:09:00,
2013-04-06 00:24:00,47.7,40.8,29.85,SSW,198,0.0,2.0,77,0.00,,,0.00,meteobridge,2013-04-06 07:24:00,
2013-04-06 00:39:00,47.5,41.0,29.84,SSW,195,4.0,4.9,78,0.00,,,0.00,meteobridge,2013-04-06 07:39:00,
2013-04-06 00:54:00,47.3,41.2,29.84,South,170,0.0,0.9,79,0.00,,,0.00,meteobridge,2013-04-06 07:54:00,
2013-04-06 01:09:00,46.9,41.2,29.84,SE,136,0.9,0.9,80,0.00,,,0.00,meteobridge,2013-04-06 08:09:00,
2013-04-06 01:24:00,46.8,41.5,29.84,SSE,158,0.0,0.9,82,0.00,,,0.00,meteobridge,2013-04-06 08:24:00,
2013-04-06 01:40:00,46.8,41.9,29.84,SE,143,0.0,0.9,83,0.00,,,0.00,meteobridge,2013-04-06 08:40:00,
2013-04-06 01:55:00,46.6,42.6,29.84,South,189,0.0,2.0,86,0.00,,,0.00,meteobridge,2013-04-06 08:55:00,
2013-04-06 02:10:00,46.0,43.3,29.83,South,188,0.0,2.0,90,0.01,,,0.01,meteobridge,2013-04-06 09:10:00,
2013-04-06 02:25:00,45.9,43.3,29.83,SSE,164,2.0,2.0,91,0.01,,,0.01,meteobridge,2013-04-06 09:25:00,
2013-04-06 02:40:00,45.9,43.7,29.82,SSW,200,0.0,0.9,92,0.02,,,0.02,meteobridge,2013-04-06 09:40:00,
2013-04-06 02:55:00,45.7,43.7,29.82,SSE,159,0.0,0.0,93,0.02,,,0.02,meteobridge,2013-04-06 09:55:00,
2013-04-06 03:10:00,45.3,43.3,29.82,SSE,162,0.0,0.9,93,0.01,,,0.02,meteobridge,2013-04-06 10:10:00,
2013-04-06 03:25:00,45.5,43.5,29.81,SSE,167,0.0,0.0,93,0.01,,,0.02,meteobridge,2013-04-06 10:25:00,
2013-04-06 03:41:00,45.3,43.3,29.80,ESE,113,0.0,0.0,93,0.01,,,0.03,meteobridge,2013-04-06 10:41:00,
2013-04-06 03:56:00,45.1,43.2,29.80,SSW,212,0.0,2.0,93,0.01,,,0.03,meteobridge,2013-04-06 10:56:00,
2013-04-06 04:26:00,45.1,43.2,29.80,South,190,0.0,0.0,93,0.01,,,0.03,meteobridge,2013-04-06 11:26:00,
2013-04-06 04:41:00,45.0,43.3,29.80,SSW,192,0.0,0.0,94,0.00,,,0.03,meteobridge,2013-04-06 11:41:00,
2013-04-06 04:56:00,45.0,43.3,29.79,SSW,192,0.0,0.0,94,0.00,,,0.03,meteobridge,2013-04-06 11:56:00,
2013-04-06 05:11:00,45.0,43.3,29.79,South,191,0.0,0.0,94,0.00,,,0.03,meteobridge,2013-04-06 12:11:00,
2013-04-06 05:26:00,45.0,43.0,29.79,WSW,244,0.0,0.0,93,0.00,,,0.03,meteobridge,2013-04-06 12:26:00,
2013-04-06 05:41:00,45.0,43.0,29.80,SSE,151,0.0,0.0,93,0.01,,,0.04,meteobridge,2013-04-06 12:41:00,
2013-04-06 05:56:00,45.1,43.2,29.79,SSE,159,0.9,4.9,93,0.01,,,0.04,meteobridge,2013-04-06 12:56:00,
2013-04-06 06:11:00,45.1,43.0,29.79,SSE,165,0.0,2.9,92,0.01,,,0.04,meteobridge,2013-04-06 13:11:00,
2013-04-06 06:26:00,45.0,43.0,29.79,SSW,210,0.0,0.9,93,0.01,,,0.04,meteobridge,2013-04-06 13:26:00,
2013-04-06 06:41:00,45.1,43.0,29.78,SE,125,0.0,0.9,92,0.00,,,0.04,meteobridge,2013-04-06 13:41:00,
2013-04-06 06:57:00,45.3,43.2,29.78,South,181,0.0,0.9,92,0.00,,,0.04,meteobridge,2013-04-06 13:57:00,
2013-04-06 07:12:00,45.7,43.2,29.78,SSE,158,0.9,4.0,91,0.00,,,0.04,meteobridge,2013-04-06 14:12:00,
2013-04-06 07:27:00,45.9,43.2,29.78,NW,304,0.9,2.0,90,0.00,,,0.04,meteobridge,2013-04-06 14:27:00,
2013-04-06 07:42:00,46.4,43.3,29.78,South,172,0.0,4.0,89,0.00,,,0.04,meteobridge,2013-04-06 14:42:00,
2013-04-06 07:57:00,46.9,43.3,29.79,SE,138,0.0,2.0,87,0.00,,,0.04,meteobridge,2013-04-06 14:57:00,
2013-04-06 08:12:00,47.5,43.9,29.79,South,169,0.0,2.9,87,0.00,,,0.04,meteobridge,2013-04-06 15:12:00,
2013-04-06 08:27:00,47.8,43.2,29.80,ESE,108,4.9,11.0,84,0.00,,,0.04,meteobridge,2013-04-06 15:27:00,
2013-04-06 08:42:00,48.0,43.2,29.79,SE,137,0.9,2.0,83,0.00,,,0.04,meteobridge,2013-04-06 15:42:00,
2013-04-06 08:57:00,48.2,42.6,29.79,SE,141,0.0,2.0,81,0.00,,,0.04,meteobridge,2013-04-06 15:57:00,
2013-04-06 09:12:00,49.1,42.8,29.80,SSE,157,4.9,6.9,79,0.00,,,0.04,meteobridge,2013-04-06 16:12:00,
2013-04-06 09:27:00,49.5,42.3,29.80,WSW,240,2.0,2.9,76,0.00,,,0.04,meteobridge,2013-04-06 16:27:00,
2013-04-06 09:42:00,50.0,41.7,29.80,WNW,293,0.0,4.9,73,0.00,,,0.04,meteobridge,2013-04-06 16:42:00,
2013-04-06 09:57:00,50.2,41.5,29.81,WNW,288,0.0,2.0,72,0.00,,,0.04,meteobridge,2013-04-06 16:57:00,
2013-04-06 10:12:00,50.2,40.8,29.81,SSW,206,2.0,6.0,70,0.00,,,0.04,meteobridge,2013-04-06 17:12:00,
2013-04-06 10:27:00,51.3,41.9,29.82,NNW,330,0.0,2.0,70,0.00,,,0.04,meteobridge,2013-04-06 17:27:00,
2013-04-06 10:42:00,52.2,42.6,29.83,NW,317,0.0,2.0,70,0.00,,,0.04,meteobridge,2013-04-06 17:42:00,
2013-04-06 10:57:00,53.1,42.4,29.82,SE,129,6.0,6.9,67,0.00,,,0.04,meteobridge,2013-04-06 17:57:00,
2013-04-06 11:12:00,54.5,40.8,29.83,SE,139,2.0,4.0,60,0.00,,,0.04,meteobridge,2013-04-06 18:12:00,
2013-04-06 11:27:00,52.9,40.6,29.83,ESE,120,0.9,2.9,63,0.00,,,0.04,meteobridge,2013-04-06 18:27:00,
2013-04-06 11:42:00,51.6,41.7,29.83,ESE,122,11.0,11.0,69,0.01,,,0.05,meteobridge,2013-04-06 18:42:00,
2013-04-06 12:12:00,52.9,39.7,29.83,WSW,255,0.9,4.0,61,0.01,,,0.05,meteobridge,2013-04-06 19:12:00,
2013-04-06 12:27:00,53.1,39.6,29.83,NW,316,0.9,2.9,60,0.01,,,0.05,meteobridge,2013-04-06 19:27:00,
2013-04-06 12:42:00,51.6,40.3,29.83,East,95,0.9,10.1,65,0.01,,,0.06,meteobridge,2013-04-06 19:42:00,
2013-04-06 12:57:00,51.3,38.7,29.83,West,277,2.0,8.1,62,0.02,,,0.07,meteobridge,2013-04-06 19:57:00,
2013-04-06 13:12:00,51.4,38.8,29.83,NW,315,0.9,4.0,62,0.02,,,0.07,meteobridge,2013-04-06 20:12:00,
2013-04-06 13:27:00,52.0,41.0,29.83,WSW,245,0.0,0.9,66,0.02,,,0.07,meteobridge,2013-04-06 20:27:00,
2013-04-06 13:42:00,52.3,39.7,29.84,South,175,0.9,10.1,62,0.00,,,0.07,meteobridge,2013-04-06 20:42:00,
2013-04-06 13:57:00,52.5,42.6,29.83,South,169,2.0,4.9,69,0.02,,,0.09,meteobridge,2013-04-06 20:57:00,
2013-04-06 14:12:00,53.4,39.0,29.83,SSW,212,0.9,4.0,58,0.02,,,0.09,meteobridge,2013-04-06 21:12:00,
2013-04-06 14:27:00,53.8,38.8,29.83,SSE,166,2.0,4.0,57,0.02,,,0.09,meteobridge,2013-04-06 21:27:00,
2013-04-06 14:42:00,55.6,38.7,29.82,SE,142,0.0,2.0,53,0.02,,,0.09,meteobridge,2013-04-06 21:42:00,
2013-04-06 14:57:00,55.9,36.0,29.82,South,185,4.0,4.9,47,0.00,,,0.09,meteobridge,2013-04-06 21:57:00,
2013-04-06 15:12:00,55.0,35.8,29.83,SSE,148,4.9,4.9,48,0.00,,,0.09,meteobridge,2013-04-06 22:12:00,
2013-04-06 15:27:00,55.2,34.9,29.82,SE,127,2.0,4.0,46,0.00,,,0.09,meteobridge,2013-04-06 22:27:00,
2013-04-06 15:42:00,54.9,33.4,29.82,WNW,285,2.0,6.9,44,0.00,,,0.09,meteobridge,2013-04-06 22:42:00,
2013-04-06 15:57:00,54.3,35.1,29.83,WSW,237,2.0,2.9,48,0.00,,,0.09,meteobridge,2013-04-06 22:57:00,
2013-04-06 16:13:00,54.1,35.4,29.82,WNW,296,0.9,2.9,49,0.00,,,0.09,meteobridge,2013-04-06 23:13:00,
2013-04-06 16:27:00,54.0,36.3,29.82,SW,236,0.0,6.0,51,0.00,,,0.09,meteobridge,2013-04-06 23:27:00,
2013-04-06 16:42:00,54.0,35.8,29.82,WNW,283,0.0,2.0,50,0.00,,,0.09,meteobridge,2013-04-06 23:42:00,
2013-04-06 16:57:00,54.0,34.7,29.83,SSE,148,0.0,4.0,48,0.00,,,0.09,meteobridge,2013-04-06 23:57:00,
2013-04-06 17:12:00,54.0,34.7,29.83,South,180,0.9,4.0,48,0.00,,,0.09,meteobridge,2013-04-07 00:12:00,
2013-04-06 17:27:00,54.0,34.7,29.83,SE,127,0.0,0.9,48,0.00,,,0.09,meteobridge,2013-04-07 00:27:00,
2013-04-06 17:42:00,54.1,33.3,29.83,WNW,288,0.9,4.0,45,0.00,,,0.09,meteobridge,2013-04-07 00:42:00,
2013-04-06 17:58:00,52.9,32.7,29.83,WSW,251,0.0,0.9,46,0.00,,,0.09,meteobridge,2013-04-07 00:58:00,
2013-04-06 18:13:00,52.3,32.2,29.83,SSE,153,0.9,2.0,46,0.00,,,0.09,meteobridge,2013-04-07 01:13:00,
2013-04-06 18:28:00,51.3,32.2,29.83,WSW,250,2.9,4.9,48,0.00,,,0.09,meteobridge,2013-04-07 01:28:00,
2013-04-06 18:43:00,50.5,33.1,29.83,South,181,0.0,2.9,51,0.00,,,0.09,meteobridge,2013-04-07 01:43:00,
2013-04-06 18:58:00,49.8,32.0,29.83,WSW,252,0.9,8.9,50,0.00,,,0.09,meteobridge,2013-04-07 01:58:00,
2013-04-06 19:13:00,49.3,32.4,29.83,SSW,193,0.0,2.9,52,0.00,,,0.09,meteobridge,2013-04-07 02:13:00,
2013-04-06 19:28:00,48.9,32.5,29.83,WNW,298,0.0,0.0,53,0.00,,,0.09,meteobridge,2013-04-07 02:28:00,
2013-04-06 19:43:00,48.7,32.4,29.83,SSW,205,0.0,2.0,53,0.00,,,0.09,meteobridge,2013-04-07 02:43:00,
2013-04-06 19:58:00,48.6,31.8,29.83,West,263,0.9,2.9,52,0.00,,,0.09,meteobridge,2013-04-07 02:58:00,
2013-04-06 20:13:00,48.6,32.2,29.83,SSE,158,0.0,2.0,53,0.00,,,0.09,meteobridge,2013-04-07 03:13:00,
2013-04-06 20:28:00,48.0,32.5,29.84,SE,144,0.0,2.9,55,0.00,,,0.09,meteobridge,2013-04-07 03:28:00,
2013-04-06 20:44:00,47.5,33.1,29.84,SE,146,0.0,0.0,57,0.00,,,0.09,meteobridge,2013-04-07 03:44:00,
2013-04-06 20:59:00,47.8,33.3,29.84,SSW,206,0.9,2.9,57,0.00,,,0.09,meteobridge,2013-04-07 03:59:00,
2013-04-06 21:14:00,47.8,33.3,29.84,SE,144,0.0,0.9,57,0.00,,,0.09,meteobridge,2013-04-07 04:14:00,
2013-04-06 21:29:00,47.5,33.4,29.84,SSE,155,0.0,0.9,58,0.00,,,0.09,meteobridge,2013-04-07 04:29:00,
2013-04-06 21:44:00,46.4,33.6,29.83,SE,138,0.0,0.9,61,0.00,,,0.09,meteobridge,2013-04-07 04:44:00,
2013-04-06 21:59:00,45.7,34.2,29.83,SSE,155,0.0,0.0,64,0.00,,,0.09,meteobridge,2013-04-07 04:59:00,
2013-04-06 22:14:00,45.1,34.5,29.83,SSE,151,0.0,0.9,66,0.00,,,0.09,meteobridge,2013-04-07 05:14:00,
2013-04-06 22:29:00,44.8,34.5,29.83,South,171,0.0,2.9,67,0.00,,,0.09,meteobridge,2013-04-07 05:29:00,
2013-04-06 22:44:00,44.8,34.9,29.83,SE,127,0.0,2.9,68,0.00,,,0.09,meteobridge,2013-04-07 05:44:00,
2013-04-06 22:59:00,45.0,35.1,29.82,ESE,122,0.0,0.0,68,0.00,,,0.09,meteobridge,2013-04-07 05:59:00,
2013-04-06 23:14:00,44.8,34.9,29.81,SSE,155,0.0,2.0,68,0.00,,,0.09,meteobridge,2013-04-07 06:14:00,
2013-04-06 23:29:00,45.0,35.4,29.81,SSE,155,0.0,2.0,69,0.00,,,0.09,meteobridge,2013-04-07 06:29:00,
2013-04-06 23:45:00,44.8,35.2,29.80,SSE,162,0.0,2.0,69,0.00,,,0.09,meteobridge,2013-04-07 06:45:00,